О сайте

Добрый день Уважаемые посетители сайта!
Этот ресурс создан с целью предоставить любителям малой авиации максимум полезной информации и возможностей по обмену различными сведениями об аэродромах и интересных маршрутах. Для этого на сайте есть странички Аэродромы - информация из баз АОПА (в том виде как она предоставляется к свободному использованию) и Каталог аэродромов и аэроклубов , с различными вариантами поиска и сортировки, возможностью найти трансфер, арендовать авто или забронировать номер в гостинице on-line, а так же возможностями :
- для аэроклубов - добавить какую либо дополнительную информацию в страничку , посвященную аэроклубу
(чтобы добавить информацию необходимо зарегистрироваться, и подтвердить свою принадлежность к какому либо аэроклубу)
- для посетителей - поделиться каким либо интересным маршрутом, нарисовать его на карте, описать достопримечательности, загрузить фотографии и поставить в соответствие с каким либо клубом или аэродромом.
(чтобы добавить информацию необходимо зарегистрироваться)

Аэроклубы / Аэродромы в Москве

Карта аэродромов в Москве по коду ИКАО

Список аэродромов Москвы

Javascript is required to view this map.

Авиационная погода в Москва - Домодедово

Регион: 
Погода METAR: 
UUDD 110330Z 28002MPS 250V310 9999 FEW036CB 17/15 Q1012 R88/CLRD60 NOSIG
Время наблюдения: 
2020-08-11T03:30:00Z
Температура C: 
17.0
Точка росы: 
15.0
Направление ветра: 
280
Скорость ветра: 
4
Метеорологическая видимость: 
6.21
Условия полета: 
VFR
Аэропорт подробнее: 

Авиационная погода в Москва - Шереметьево

Регион: 
Погода METAR: 
UUEE 110330Z 32004MPS 9999 SCT034 15/12 Q1013 R24L/CLRD62 R24R/CLRD62 NOSIG
Время наблюдения: 
2020-08-11T03:30:00Z
Температура C: 
15.0
Точка росы: 
12.0
Направление ветра: 
320
Скорость ветра: 
8
Метеорологическая видимость: 
6.21
Условия полета: 
VFR
Аэропорт подробнее: 

Авиационная погода в Москва - Внуково

Регион: 
Погода METAR: 
UUWW 110330Z 33005MPS 9999 SCT010 16/15 Q1013 R24/190060 NOSIG
Время наблюдения: 
2020-08-11T03:30:00Z
Температура C: 
16.0
Точка росы: 
15.0
Направление ветра: 
330
Скорость ветра: 
10
Метеорологическая видимость: 
6.21
Условия полета: 
VFR
Аэропорт подробнее: 

Аэроклубы и аэродромы по регионам Юга России